{"data":{"norad_id":58911,"epoch":"2026-05-25T03:29:47.576256Z","epoch_age_seconds":69567,"freshness":"FRESH","line1":"1 58911U 24023G   26145.14568954  .00001492  00000+0  20839-3 0  9995","line2":"2 58911  50.0054 101.4351 0010687 330.7473  29.2866 14.83159797125492","mean_motion":14.83159797,"eccentricity":0.0010687,"inclination_deg":50.0054,"raan_deg":101.4351,"arg_perigee_deg":330.7473,"mean_anomaly_deg":29.2866,"bstar":0.00020839,"rev_number":12549,"period_min":97.090010322064,"perigee_km":611.88966940156,"apogee_km":626.846136381,"semimajor_km":6997.5049028913,"source":"CELESTRAK","updated_at":"2026-05-25T13:38:01.075035Z"}}